STARLINK-5611, 55761

Orbit data source: Space-Track

STARLINK-5611, 55761 is a payload satellite owned by SpaceX/Seattle (US) in LEO that was launched on Fri, 03 Mar 2023 UTC via an FALCON 9 launch vehicle from the Air Force Western Test Range (AFWTR). Payload-class satellites include a variety of spacecraft equipped with specific instruments for various scientific and technological missions. These include communications satellites like Starlink; space stations such as the ISS; scientific satellites like the Hubble; Earth observation satellites from companies like Planet Labs, Umbra, and HawkEye 360; GPS; miniature CubeSats for education and research; and military/defense satellites.

Loading next visibility...
Identifier
55761, 2023-028W
Orbit
LEO
Country
Flag of USUS
Related business
Manufacturer
SpaceX/Seattle
Mission
Operational Commercial Communications
Bus & Motor
STARLINK, Unknown motor
Mass
305 kg wet, ~290 kg dry
Launch date (UTC)
2023-03-03 (3 years ago)
Launch vehicle
FALCON 9
Launch site
Air Force Western Test Range (AFWTR)
Object type
Payload
Rocket body
Debris
Shape & HBR
Box + 1 Pan, 10.1 m
Radar Cross Section
11.087 m², Large (>1 m²)

Expand to show TLE details & history
Last TLE update: 3 days ago

TLE from 3 days ago
0 STARLINK-5611
1 55761U 23028W   26170.86650916  .00000204  00000-0  24918-4 0  9990
2 55761  69.9996 327.0162 0003056 267.7758  92.3051 14.98333526181836
Epoch: 2026-06-19T20:47Z
TLE epoch observation values (Epoch: 2026-06-19T20:47:46.391Z)
Latitude
-0.00004°
Longitude
106.98355°
Altitude
574.555 km
Speed
7.574 km/s
True Right ascension
21h 48m 03s
True Declination
0° 00' 00"
Sunlit
Object was in full shadow at epoch
Visualization orbit readout
Latitude
Unknown
Longitude
Unknown
Altitude
Unknown
Speed
Unknown
Apparent Right ascension
Unknown
Apparent Declination
Unknown
Sunlit
N/A
Visualization observer readout
Local Sidereal Time
21:32:30
Azimuth
Unknown
Elevation
Unknown
Doppler factor
Unknown
Orbital elements
Apogee altitude
572.117 km
Perigee altitude
567.87 km
Semi-major axis
6,948.13 km
Eccentricity
0.00031
Inclination
69.9996°
RAAN
327.0162°
Arg. of periapsis
267.7758°
True anomaly
92.34009°
Mean anomaly
92.3051°
Eccentric anomaly
92.3226°
Mean motion
3.7475 °/min
Orbital period
96.06 mins
BSTAR
0.000024918
Loading maneuver chart data...
Computing Atmospheric mass density...
Loading historical data...
Loading historical data...
Loading historical data...
Loading historical data...
Loading historical data...
Loading historical data...
Loading historical data...

Documentation

Showing up to 5 results
|